Regional Weather Roundup
Issued by NWS Kansas City/Pleasant Hill, MO

Home | Current Version | Previous Version | Text Only | Print | Product List | Glossary On
Versions: 1 2 3 4 5 6 7 8 9 10 11 12 13 14 15 16 17 18 19 20 21 22 23 24 25 26 27 28 29 30 31 32 33 34 35 36 37 38 39 40 41 42 43 44 45 46 47 48 49 50
000
ASUS43 KEAX 290904
RWREAX

WEATHER ROUNDUP FOR EASTERN KANSAS AND NORTHWEST MISSOURI
NATIONAL WEATHER SERVICE KANSAS CITY/PLEASANT HILL MO
400 AM CDT FRI MAY 29 2015

KSZ040-057-103>105-MOZ028-029-037-043-291000-
...KANSAS CITY METROPOLITAN AREA...

CITY           SKY/WX    TMP DP  RH WIND       PRES   REMARKS
K.C. INTL      MOCLDY    62  61  96 SE5       29.93F
K.C. DOWNTOWN  CLOUDY    65  61  87 S5        29.93F
LEES SUMMIT    CLOUDY    63  61  93 VRB3      29.95S
OLATHE - IXD   FOG       64  64 100 SE7       29.95S VSB 3/4
OLATHE - OJC   FOG       64  64 100 S5        29.94S VSB 1/2
LAWRENCE       CLOUDY    65  63  93 SE6       29.93S

$$

MOZ001>008-011>017-020>025-030>033-038>040-044>046-053-054-291000-
...NORTHERN AND CENTRAL MISSOURI...

CITY           SKY/WX    TMP DP  RH WIND       PRES   REMARKS
ST. JOSEPH     MOCLDY    64  62  93 SE3       29.92F
MOSBY          FOG       63  63 100 CALM      29.93F VSB 3/4
WARRENSBURG    CLOUDY    63  63 100 SE3       29.94F
WHITEMAN AFB   CLOUDY    66  65  99 S7        29.93F
CLINTON        FOG       64  64 100 S5        29.96S VSB 3/4
SEDALIA        CLOUDY    66  64  93 S6        29.96F
WARSAW         NOT AVBL
CHILLICOTHE      N/A     64  62  93 CALM      29.95S
KIRKSVILLE       N/A     64  64 100 CALM      29.96F

$$

MOZ041-047>049-056>058-063>065-088>090-097-291000-
...EASTERN AND SOUTHERN MISSOURI...

CITY           SKY/WX    TMP DP  RH WIND       PRES   REMARKS
ST. LOUIS INTL MOCLDY    73  64  73 S10       29.99F
SPIRIT OF STL  MOCLDY   N/A N/A N/A S5        29.98S
COLUMBIA       CLOUDY    65  64  97 S7        29.97R
JEFFERSON CITY CLOUDY    67  64  90 E3        29.96S
ROLLA          CLOUDY    66  64  93 S6        29.99R
OSAGE BEACH    CLOUDY    64  63  94 SE5       29.97F
SPRINGFIELD    MOCLDY    66  61  84 S8        29.98S
BRANSON        CLOUDY    66  61  82 CALM      29.99F
JOPLIN         MOCLDY    68  63  84 S8        29.95F

$$

IAZ060-094-KSZ022-034>040-054-083-096-NEZ052-066-093-291000-
...KANSAS...SOUTHEAST NEBRASKA AND IOWA...

CITY           SKY/WX    TMP DP  RH WIND       PRES   REMARKS
TOPEKA         CLOUDY    66  65  96 E7        29.91F
MANHATTAN      CLOUDY    66  65  96 CALM      29.87R
EMPORIA        TSTM      64  63  96 SE8       29.93R
CHANUTE        MOCLDY    68  67  96 SW5       29.92R THUNDER
WICHITA        MOCLDY    65  63  93 SE8       29.90S
OMAHA          CLOUDY    66  63  90 SE10      29.88F
LINCOLN        CLOUDY    65  63  93 S7        29.88R
FALLS CITY     MOCLDY    65  62  90 S9        29.89F
LAMONI         FOG       66  63  90 S3        29.95S VSB 1/4
DES MOINES     PTCLDY    63  60  90 S5        29.93F

$$



USA.gov is the U.S. government's official web portal to all federal, state and local government web resources and services.